Powrót do katalogu

STARLINK-30456

AktywnyŁącznośćVLEO
NORAD 57943·PAYLOAD·🇺🇸 United States

Wystrzelony Sep 25, 2023 z Vandenberg Space Force Base

Loading…

Następne Przeloty (najbliższe 24 godziny)

TLE

ŚwieżeSource: CelesTrak SupGP

Epoka: Sep 15, 2026, 02:38 UTC

1 57943C 23148J   26258.11020833 -.00011093  00000+0 -32800-3 0  2586
2 57943  53.1572 223.1802 0001413  90.0432 185.4543 15.34371739    12

Śledź STARLINK-30456 w czasie rzeczywistym z AllMySat

Download on the App Store